Location: Budapest
(47.4979°N, 19.0402°E)
Time: 23:22:20
(UTC+02:00)

Envisat - Visible Passes

Search period start: 17 July 2018 00:00
Search period end: 27 July 2018 00:00
Orbit: 764 x 766 km, 98.2° (Epoch: 17 July)

Date Brightness Start Highest point End Pass type
(mag) Time Alt. Az. Time Alt. Az. Time Alt. Az.
19 Jul 5.6 21:07:31 10° SW 21:11:06 19° W 21:14:41 10° NW visible
21 Jul 6.0 21:35:38 10° W 21:37:01 11° W 21:38:24 10° WNW visible
24 Jul 5.8 21:23:04 10° WSW 21:25:41 14° W 21:28:19 10° NW visible
